Content
SEND FEEDBACK

Daily
Averages
Monthly
Summary
United States of America

MERIZO, GUAM


Home > North America > United States > Guam
Elevation: 3 meters     Latitude: 13 14N     Longitude: 144 39E

WEATHER
 
SELECT A DAY
Number of Records: 337,910;   Date Range: 1/1/95 - 4/22/14
 
SHARE

PRINT THIS DATA

[ ← Previous Day ]
WEATHER ALMANAC - 16 MARCH, 2013
[ Next Day → ]
[ °F ]   °C
Weather ElementAverageHighLow
Temperature25.8 °C28 °C (12:41 pm)24 °C (4:50 am)
Dewpoint22.1 °C24 °C (11:38 am)21 °C (4:50 am)
Humidity79.8 %94 % (11:23 am)69 % (3:55 pm)
Barometer1012.5 hPa1014.2 hPa (9:55 am)1010.8 hPa (3:55 pm)
Wind Speed22.5 km/h37 km/h (11:14 am)
Wind Gust50.1 km/h (11:14 am)
Weather ElementAverage
Visibility14.8 km
Wind DirectionENE (56.6 °)

Weather ElementTotal
Precipitation---
Cooling Degree Days7.7 (Base 18.3)
Growing Degree Days16 (Base 10)
Averaged from 71 records on 16 March, 2013
WEATHER CONDITIONS BREAKOUT
WIND DIRECTION BREAKOUT
WEATHER BY HOUR - 16 MARCH, 2013
[ °F ]   °C
Local TimeTemperatureDewpointHumidityBarometerVisibilityWind DirectionWind SpeedGust SpeedPrecipitationEventsConditions
12:23 AM25 °C22 °C83 %1013.5 hPa16.1 kmENE (60°)20.4 km/hScattered Clouds
12:54 AM25 °C22 °C83 %1013.2 hPa16.1 kmNE (50°)22.2 km/hMostly Cloudy
12:55 AM24.8 °C22 °C84 %1013.2 hPa16.1 kmNE (50°)20.4 km/hMostly Cloudy
1:08 AM25 °C22 °C83 %1013.2 hPa16.1 kmENE (60°)22.2 km/hMostly Cloudy
1:10 AM25 °C22 °C83 %1013.2 hPa16.1 kmNE (50°)18.5 km/hMostly Cloudy
1:14 AM25 °C22 °C83 %1012.9 hPa16.1 kmENE (60°)16.7 km/hMostly Cloudy
1:55 AM24.7 °C21.5 °C82 %1012.5 hPa16.1 kmENE (60°)20.4 km/hPartly Cloudy
2:55 AM24.7 °C21.8 °C84 %1012.2 hPa16.1 kmNE (50°)14.8 km/hPartly Cloudy
3:55 AM24.5 °C21.4 °C83 %1011.9 hPa16.1 kmNE (50°)20.4 km/hScattered Clouds
4:37 AM25 °C22 °C83 %1011.5 hPa16.1 kmNE (50°)18.5 km/hMostly Cloudy
4:50 AM24 °C21 °C83 %1011.5 hPa16.1 kmENE (60°)16.7 km/hMostly Cloudy
4:55 AM24.3 °C21.1 °C82 %1011.9 hPa16.1 kmENE (60°)18.5 km/hScattered Clouds
5:50 AM25 °C22 °C83 %1012.2 hPa16.1 kmENE (60°)24.1 km/hMostly Cloudy
5:51 AM25 °C22 °C83 %1012.2 hPa16.1 kmNE (50°)25.9 km/hMostly Cloudy
5:55 AM24.7 °C22 °C85 %1012.2 hPa16.1 kmNE (50°)22.2 km/hMostly Cloudy
6:55 AM24.5 °C21.9 °C85 %1013.2 hPa16.1 kmNE (50°)20.4 km/hPartly Cloudy
7:55 AM25.2 °C21.5 °C80 %1013.9 hPa16.1 kmENE (70°)18.5 km/hPartly Cloudy
8:55 AM26.6 °C21.7 °C74 %1013.9 hPa16.1 kmNE (50°)16.7 km/hClear
9:51 AM27 °C23 °C79 %1013.9 hPa16.1 kmNNE (30°)24.1 km/hMostly Cloudy
9:55 AM27.1 °C22.4 °C75 %1014.2 hPa16.1 kmNNE (30°)22.2 km/hMostly Cloudy
9:56 AM27 °C22 °C74 %1014.2 hPa16.1 kmNNE (30°)24.1 km/hScattered Clouds
10:53 AM27 °C21 °C70 %1013.9 hPa16.1 kmNorth (10°)22.2 km/hMostly Cloudy
10:55 AM26.8 °C21.6 °C73 %1013.9 hPa16.1 kmNorth (360°)22.2 km/hMostly Cloudy
11:07 AM26 °C22 °C78 %1013.5 hPa16.1 kmNorth (360°)22.2 km/hMostly Cloudy
11:08 AM26 °C22 °C78 %1013.9 hPa16.1 kmNorth (10°)22.2 km/hMostly Cloudy
11:13 AM26 °C21 °C74 %1013.9 hPa14.5 kmNNE (30°)29.6 km/h46.3 km/hRainLight Rain
11:14 AM25 °C21 °C78 %1013.5 hPa8 kmNNE (20°)37 km/h50.1 km/hRainHeavy Rain
11:16 AM25 °C22 °C83 %1013.9 hPa4 kmNorth (10°)29.6 km/h50.1 km/hRainHeavy Rain
11:17 AM25 °C22 °C83 %1013.5 hPa3.2 kmNorth (10°)27.8 km/h50.1 km/hRainHeavy Rain
11:18 AM25 °C22 °C83 %1013.9 hPa3.2 kmNorth (10°)25.9 km/h50.1 km/hRainHeavy Rain
11:19 AM24 °C22 °C89 %1013.5 hPa2.9 kmNorth (10°)24.1 km/h50.1 km/hRainHeavy Rain
11:23 AM24 °C23 °C94 %1013.5 hPa3.2 kmNNE (20°)20.4 km/h50.1 km/hRainLight Rain
11:24 AM24 °C23 °C94 %1013.5 hPa4 kmNNE (30°)20.4 km/h50.1 km/hRainLight Rain
11:25 AM24 °C23 °C94 %1013.5 hPa4.8 kmNNE (30°)18.5 km/hRainLight Rain
11:31 AM25 °C23 °C89 %1013.5 hPa16.1 kmNE (50°)27.8 km/hRainLight Rain
11:32 AM25 °C23 °C89 %1013.5 hPa16.1 kmENE (60°)29.6 km/hOvercast
11:38 AM26 °C24 °C89 %1013.5 hPa16.1 kmNE (50°)25.9 km/hMostly Cloudy
11:55 AM26.9 °C23.5 °C82 %1013.2 hPa16.1 kmENE (70°)24.1 km/h0 mmPartly Cloudy
12:41 PM28 °C22 °C70 %1012.9 hPa16.1 kmNE (40°)25.9 km/hMostly Cloudy
12:54 PM27 °C23 °C79 %1012.5 hPa16.1 kmENE (60°)25.9 km/hMostly Cloudy
12:55 PM27 °C22.8 °C78 %1012.5 hPa16.1 kmENE (60°)24.1 km/hMostly Cloudy
1:04 PM28 °C23 °C74 %1012.2 hPa16.1 kmENE (60°)27.8 km/hMostly Cloudy
1:12 PM27 °C23 °C79 %1012.2 hPa16.1 kmENE (60°)29.6 km/hScattered Clouds
1:55 PM26.9 °C22.3 °C76 %1011.5 hPa16.1 kmNE (50°)25.9 km/hMostly Cloudy
1:57 PM27 °C22 °C74 %1011.5 hPa16.1 kmNE (50°)22.2 km/hMostly Cloudy
2:13 PM28 °C22 °C70 %1011.5 hPa16.1 kmENE (60°)27.8 km/hMostly Cloudy
2:52 PM27 °C22 °C74 %1011.2 hPa16.1 kmNE (40°)24.1 km/hMostly Cloudy
2:55 PM27.4 °C22 °C72 %1011.2 hPa16.1 kmNE (50°)25.9 km/hMostly Cloudy
3:08 PM28 °C22 °C70 %1011.2 hPa16.1 kmNE (50°)27.8 km/hMostly Cloudy
3:12 PM28 °C22 °C70 %1011.2 hPa16.1 kmENE (60°)29.6 km/hScattered Clouds
3:55 PM27.6 °C21.5 °C69 %1010.8 hPa16.1 kmNE (40°)25.9 km/h35.2 km/hClear
4:55 PM27 °C21.6 °C72 %1011.2 hPa16.1 kmENE (60°)20.4 km/hScattered Clouds
5:02 PM27 °C22 °C74 %1011.2 hPa16.1 kmNE (50°)24.1 km/hMostly Cloudy
5:16 PM26 °C22 °C78 %1011.5 hPa16.1 kmENE (60°)20.4 km/hScattered Clouds
5:17 PM26 °C22 °C78 %1011.5 hPa16.1 kmENE (60°)20.4 km/hMostly Cloudy
5:19 PM26 °C22 °C78 %1011.5 hPa16.1 kmENE (60°)20.4 km/hScattered Clouds
5:24 PM26 °C22 °C78 %1011.5 hPa16.1 kmENE (60°)18.5 km/hMostly Cloudy
5:26 PM26 °C22 °C78 %1011.5 hPa16.1 kmENE (60°)20.4 km/hScattered Clouds
5:55 PM26.2 °C21.6 °C76 %1011.5 hPa16.1 kmENE (60°)20.4 km/hScattered Clouds
6:55 PM25.4 °C21.7 °C80 %1011.9 hPa16.1 kmENE (60°)22.2 km/hMostly Cloudy
7:55 PM25.8 °C21.7 °C78 %1012.2 hPa16.1 kmNE (50°)22.2 km/hMostly Cloudy
8:20 PM26 °C22 °C78 %1012.2 hPa16.1 kmNE (40°)20.4 km/hOvercast
8:55 PM25.5 °C21.6 °C79 %1012.5 hPa16.1 kmNE (50°)20.4 km/hOvercast
9:03 PM26 °C22 °C78 %1012.5 hPa16.1 kmNE (50°)20.4 km/hOvercast
9:42 PM25 °C22 °C83 %1012.5 hPa16.1 kmNE (50°)18.5 km/hMostly Cloudy
9:55 PM25.5 °C22.1 °C81 %1012.5 hPa16.1 kmENE (60°)22.2 km/hOvercast
10:04 PM25 °C22 °C83 %1012.9 hPa16.1 kmENE (60°)20.4 km/hMostly Cloudy
10:30 PM25 °C22 °C83 %1012.9 hPa16.1 kmENE (60°)18.5 km/hMostly Cloudy
10:35 PM25 °C22 °C83 %1012.9 hPa16.1 kmENE (60°)18.5 km/hMostly Cloudy
10:55 PM25.1 °C21.5 °C80 %1012.9 hPa16.1 kmENE (60°)16.7 km/hMostly Cloudy
11:55 PM25 °C21.5 °C81 %1012.9 hPa16.1 kmNE (50°)14.8 km/hClear
Hourly data recorded from PGUA, located 28.84 kilometers away from Merizo, Guam







STORIES FROM OUR PARTNERS